Date String (YYYY-MM-DD hh:mm:ss) UTC,Instrument flags,Ambient pressure (hPa),Sample flow (lpm),Bypass flow (lpm),Sample temperature (°C),Ambient temperature (°C),ASC tube jacket temperature (°C),LED temperature (°C),Box temperature (°C),Sample RH (%),Span deviation,Mass concentration (μg/m³),Mass concentration (μg/m³),Mass concentration (μg/m³)
DateTimeUTC,F1_M11,P_M11,Q1_M11,Q2_M11,T1_M11,T2_M11,T3_M11,T4_M11,T5_M11,U1_M11,ZSPAN_M11,X0_M11,X2_M11,X1_M11
2022-06-18 01:00:00,,0823.3,5.00,0.00,29.2,28.3,00.0,37.9,31.2,21.1,0003.0,0016.30,0010.53,0008.91
2022-06-18 01:01:00,,0823.4,5.00,0.00,29.2,28.4,00.0,37.9,31.3,21.1,0002.6,0016.40,0010.53,0008.92
2022-06-18 01:02:00,,0823.4,5.00,0.00,29.2,28.4,00.0,37.9,31.3,21.1,0002.3,0016.42,0010.47,0008.90
2022-06-18 01:03:00,,0823.3,4.99,0.00,29.2,27.6,00.0,37.9,31.1,21.0,0002.4,0016.43,0010.49,0008.90
2022-06-18 01:04:00,,0823.4,4.99,0.00,29.1,27.0,00.0,37.8,30.9,21.1,0001.9,0016.59,0010.54,0008.91
2022-06-18 01:05:00,,0823.4,5.00,0.00,29.1,26.9,00.0,37.8,30.8,21.1,0001.6,0016.71,0010.54,0008.90
2022-06-18 01:06:00,,0823.4,5.00,0.00,29.0,26.9,00.0,37.8,30.8,21.1,0001.5,0016.54,0010.46,0008.88
2022-06-18 01:07:00,,0823.4,5.01,0.00,29.0,27.1,00.0,37.8,30.8,21.2,0001.1,0016.91,0010.39,0008.88
2022-06-18 01:08:00,,0823.4,5.00,0.00,29.0,27.2,00.0,37.8,30.9,21.3,0001.6,0016.74,0010.35,0008.89
2022-06-18 01:09:00,,0823.3,4.99,0.00,29.0,27.4,00.0,37.8,30.9,21.2,0001.8,0016.62,0010.28,0008.86
2022-06-18 01:10:00,,0823.4,5.01,0.00,29.0,27.6,00.0,37.8,31.0,21.3,0001.9,0016.52,0010.24,0008.86
2022-06-18 01:11:00,,0823.3,5.01,0.00,29.1,27.8,00.0,37.8,31.0,21.4,0002.4,0016.47,0010.24,0008.86
2022-06-18 01:12:00,,0823.4,5.00,0.00,29.1,27.9,00.0,37.8,31.1,21.4,0002.6,0016.41,0010.18,0008.83
2022-06-18 01:13:00,,0823.3,5.01,0.00,29.1,28.1,00.0,37.9,31.1,21.4,0002.7,0016.19,0010.12,0008.80
2022-06-18 01:14:00,,0823.4,5.00,0.00,29.1,28.2,00.0,37.9,31.2,21.5,0002.4,0016.06,0010.06,0008.76
2022-06-18 01:15:00,,0823.4,5.00,0.00,29.2,28.3,00.0,37.9,31.2,21.6,0002.2,0015.94,0009.99,0008.70
2022-06-18 01:16:00,,0823.4,5.00,0.00,29.2,28.4,00.0,37.9,31.3,21.6,0002.4,0015.80,0009.92,0008.67
2022-06-18 01:17:00,,0823.4,4.99,0.00,29.3,28.4,00.0,37.9,31.3,21.7,0002.4,0015.80,0009.93,0008.67
2022-06-18 01:18:00,,0823.4,5.00,0.00,29.2,27.6,00.0,37.9,31.1,21.8,0002.6,0015.24,0009.99,0008.66
2022-06-18 01:19:00,,0823.4,4.99,0.00,29.1,26.9,00.0,37.8,30.9,21.9,0002.7,0015.23,0010.00,0008.64
2022-06-18 01:20:00,,0823.4,5.00,0.00,29.1,26.8,00.0,37.8,30.9,22.0,0002.7,0015.32,0010.01,0008.63
2022-06-18 01:21:00,,0823.4,5.00,0.00,29.0,26.9,00.0,37.8,30.8,22.1,0002.8,0015.40,0010.00,0008.60
2022-06-18 01:22:00,,0823.5,4.99,0.00,29.0,27.1,00.0,37.8,30.9,22.3,0002.7,0015.36,0009.96,0008.56
2022-06-18 01:23:00,,0823.6,4.99,0.00,29.0,27.2,00.0,37.8,30.9,22.4,0002.7,0014.84,0009.91,0008.55
2022-06-18 01:24:00,,0823.6,5.00,0.00,29.0,27.4,00.0,37.8,30.9,22.4,0002.6,0014.89,0009.93,0008.55
2022-06-18 01:25:00,,0823.6,4.99,0.00,29.0,27.6,00.0,37.8,31.0,22.3,0002.3,0014.92,0009.95,0008.55
2022-06-18 01:26:00,,0823.5,5.00,0.00,29.1,27.8,00.0,37.8,31.0,22.4,0002.8,0014.93,0009.92,0008.55
2022-06-18 01:27:00,,0823.6,4.99,0.00,29.1,27.9,00.0,37.9,31.1,22.4,0002.6,0014.48,0009.90,0008.56
2022-06-18 01:28:00,,0823.6,5.00,0.00,29.1,28.1,00.0,37.9,31.1,22.3,0002.7,0014.40,0009.88,0008.56
2022-06-18 01:29:00,,0823.6,5.00,0.00,29.2,28.2,00.0,37.9,31.2,22.3,0002.7,0014.64,0009.83,0008.53
2022-06-18 01:30:00,,0823.7,4.99,0.00,29.2,28.3,00.0,37.9,31.2,22.2,0002.6,0014.69,0009.79,0008.53
2022-06-18 01:31:00,,0823.6,5.00,0.00,29.2,28.4,00.0,37.9,31.3,22.1,0002.7,0014.70,0009.80,0008.53
2022-06-18 01:32:00,,0823.4,5.01,0.00,29.3,28.5,00.0,38.0,31.3,22.2,0002.7,0014.67,0009.80,0008.53
2022-06-18 01:33:00,,0823.4,5.00,0.00,29.3,28.1,00.0,37.9,31.2,22.1,0001.2,0014.68,0009.82,0008.54
2022-06-18 01:34:00,,0823.4,4.99,0.00,29.2,27.2,00.0,37.9,31.0,22.1,0001.4,0014.78,0009.86,0008.55
2022-06-18 01:35:00,,0823.4,5.01,0.00,29.1,26.9,00.0,37.8,30.9,22.2,0002.5,0014.97,0009.88,0008.55
2022-06-18 01:36:00,,0823.4,4.99,0.00,29.1,26.9,00.0,37.8,30.9,22.2,0002.9,0014.96,0009.85,0008.53
2022-06-18 01:37:00,,0823.4,5.01,0.00,29.0,27.0,00.0,37.8,30.9,22.5,0002.7,0014.93,0009.85,0008.52
2022-06-18 01:38:00,,0823.4,4.99,0.00,29.0,27.2,00.0,37.8,30.9,22.4,0002.6,0014.92,0009.84,0008.52
2022-06-18 01:39:00,,0823.4,5.00,0.00,29.0,27.3,00.0,37.8,30.9,22.5,0002.4,0015.17,0009.90,0008.51
2022-06-18 01:40:00,,0823.4,5.00,0.00,29.0,27.5,00.0,37.8,31.0,22.5,0002.6,0015.15,0009.94,0008.52
2022-06-18 01:41:00,,0823.4,5.01,0.00,29.1,27.7,00.0,37.8,31.0,22.5,0002.3,0015.16,0009.98,0008.51
2022-06-18 01:42:00,,0823.4,4.99,0.00,29.1,27.9,00.0,37.9,31.1,22.6,0002.4,0015.15,0009.94,0008.50
2022-06-18 01:43:00,,0823.4,4.99,0.00,29.1,28.0,00.0,37.9,31.1,22.5,0002.4,0015.47,0009.91,0008.47
2022-06-18 01:44:00,,0823.5,5.00,0.00,29.1,28.1,00.0,37.9,31.2,22.3,0002.5,0015.92,0009.89,0008.46
2022-06-18 01:45:00,,0823.5,5.00,0.00,29.2,28.3,00.0,37.9,31.2,22.2,0002.6,0015.85,0009.86,0008.45
2022-06-18 01:46:00,,0823.6,5.00,0.00,29.2,28.4,00.0,37.9,31.3,22.1,0002.4,0015.60,0009.80,0008.42
2022-06-18 01:47:00,,0823.5,5.00,0.00,29.3,28.4,00.0,38.0,31.3,22.0,0002.0,0015.59,0009.81,0008.40
2022-06-18 01:48:00,,0823.5,5.01,0.00,29.3,28.0,00.0,37.9,31.2,22.0,0002.1,0015.70,0009.77,0008.37
2022-06-18 01:49:00,,0823.4,5.03,0.00,29.2,27.5,00.0,37.9,31.1,22.0,0002.4,0016.03,0009.77,0008.34
2022-06-18 01:50:00,,0823.4,5.00,0.00,29.2,27.4,00.0,37.9,31.0,22.1,0002.7,0016.02,0009.72,0008.31
2022-06-18 01:51:00,,0823.4,4.99,0.00,29.2,27.5,00.0,37.9,31.0,22.2,0002.9,0015.89,0009.71,0008.28
2022-06-18 01:52:00,,0823.4,5.01,0.00,29.2,27.6,00.0,37.9,31.1,22.2,0002.9,0015.97,0009.67,0008.25
2022-06-18 01:53:00,,0823.4,5.01,0.00,29.2,27.7,00.0,37.9,31.1,22.2,0002.6,0015.90,0009.66,0008.24
2022-06-18 01:54:00,,0823.3,5.00,0.00,29.2,27.9,00.0,37.9,31.1,22.4,0002.6,0015.65,0009.71,0008.25
2022-06-18 01:55:00,,0823.3,4.98,0.00,29.2,28.0,00.0,38.0,31.2,22.4,0003.1,0015.14,0009.66,0008.22
2022-06-18 01:56:00,,0823.4,5.00,0.00,29.2,28.1,00.0,38.0,31.2,22.6,0003.0,0015.07,0009.62,0008.19
2022-06-18 01:57:00,,0823.4,5.00,0.00,29.3,28.3,00.0,38.0,31.3,22.7,0003.2,0015.17,0009.65,0008.18
2022-06-18 01:58:00,,0823.4,5.00,0.00,29.3,28.4,00.0,38.0,31.3,22.8,0003.5,0015.38,0009.64,0008.19
2022-06-18 01:59:00,,0823.4,5.01,0.00,29.3,28.1,00.0,38.0,31.2,23.0,0003.6,0015.36,0009.72,0008.21
